FW8022 Weather Reports


Display with metric or nautical units.
time (UTC)temp
F
wind
direction
speed
MPH
gust
MPH
rain 1hr
in
rain 24hr
in
rain mn
in
humidity
%
barometer
mb
20221129050046 49 271 4.0 12.0 0.00 0.00 0.00 82 1013.8
20221129045539 49 292 5.0 13.0 0.00 0.00 0.00 82 1013.8
20221129045036 49 232 4.0 13.0 0.00 0.00 0.00 81 1013.7
20221129044546 49 355 3.0 13.0 0.00 0.00 0.00 81 1013.5
20221129044037 49 166 4.0 13.0 0.00 0.00 0.00 81 1013.4
20221129043539 50 260 4.0 12.0 0.00 0.00 0.00 81 1013.3
20221129043041 50 11 3.0 11.0 0.00 0.00 0.00 80 1013.4
20221129042536 50 303 3.0 12.0 0.00 0.00 0.00 80 1013.6
20221129042038 50 30 4.0 12.0 0.00 0.00 0.00 80 1013.5
20221129041543 50 313 4.0 12.0 0.00 0.00 0.00 80 1013.4
20221129041038 50 231 4.0 11.0 0.00 0.00 0.00 80 1013.2
20221129040537 50 343 3.0 11.0 0.00 0.00 0.00 80 1013.3
20221129040051 50 252 4.0 9.0 0.00 0.00 0.00 81 1013.4
20221129035536 50 229 4.0 10.0 0.00 0.00 0.00 81 1013.2
20221129035035 50 292 3.0 10.0 0.00 0.00 0.00 81 1013.2
20221129034542 50 266 3.0 12.0 0.00 0.00 0.00 80 1013.2
20221129034035 50 215 4.0 16.0 0.00 0.00 0.00 79 1013.1
20221129033538 50 346 4.0 16.0 0.00 0.00 0.00 79 1013.0
20221129033046 50 305 5.0 17.0 0.00 0.00 0.00 79 1013.1
20221129032538 50 346 5.0 17.0 0.00 0.00 0.00 79 1013.1
20221129032037 50 276 2.0 16.0 0.00 0.00 0.00 79 1013.3
20221129031544 50 263 4.0 20.0 0.00 0.00 0.00 78 1013.3
20221129031039 50 342 3.0 20.0 0.00 0.00 0.00 78 1013.2
20221129030536 50 9 6.0 20.0 0.00 0.00 0.00 78 1013.2
20221129030046 50 121 4.0 16.0 0.00 0.00 0.00 77 1013.3
20221129025535 50 317 5.0 16.0 0.00 0.00 0.00 77 1013.0
20221129025037 50 340 4.0 15.0 0.00 0.00 0.00 77 1013.1
20221129024546 50 343 4.0 16.0 0.00 0.00 0.00 77 1013.1
20221129024039 50 31 4.0 16.0 0.00 0.00 0.00 78 1013.1
20221129023535 50 293 5.0 16.0 0.00 0.00 0.00 77 1013.1
20221129023049 50 315 5.0 12.0 0.00 0.00 0.00 78 1013.2
20221129022536 50 291 4.0 12.0 0.00 0.00 0.00 78 1013.2
20221129022035 50 5 5.0 13.0 0.00 0.00 0.00 78 1013.3
20221129021549 50 261 3.0 13.0 0.00 0.00 0.00 78 1013.3
20221129021037 50 290 4.0 11.0 0.00 0.00 0.00 77 1013.2
20221129020535 50 281 4.0 11.0 0.00 0.00 0.00 77 1013.2
20221129020057 50 290 3.0 12.0 0.00 0.00 0.00 77 1013.2
20221129015537 50 306 3.0 12.0 0.00 0.00 0.00 77 1013.2
20221129015038 51 248 3.0 13.0 0.00 0.00 0.00 78 1013.3
20221129014545 51 360 4.0 13.0 0.00 0.00 0.00 77 1013.3
20221129014039 51 264 4.0 12.0 0.00 0.00 0.00 77 1013.3
20221129013537 51 328 5.0 12.0 0.00 0.00 0.00 77 1013.3
20221129013048 51 94 4.0 12.0 0.00 0.00 0.00 77 1013.3
20221129012539 51 282 5.0 12.0 0.00 0.00 0.00 76 1013.3
20221129012035 51 293 4.0 12.0 0.00 0.00 0.00 76 1013.4
20221129011543 51 269 4.0 12.0 0.00 0.00 0.00 76 1013.3
20221129011035 51 317 3.0 15.0 0.00 0.00 0.00 76 1013.4
20221129010538 51 313 2.0 15.0 0.00 0.00 0.00 76 1013.4
20221129010050 51 332 4.0 15.0 0.00 0.00 0.00 76 1013.4
20221129005539 51 305 4.0 14.0 0.00 0.00 0.00 76 1013.3
20221129005041 51 210 2.0 9.0 0.00 0.00 0.00 76 1013.4
20221129004555 51 340 3.0 9.0 0.00 0.00 0.00 75 1013.4
20221129004037 51 293 3.0 12.0 0.00 0.00 0.00 75 1013.5
20221129003536 51 210 3.0 13.0 0.00 0.00 0.00 75 1013.5
20221129003054 51 253 6.0 13.0 0.00 0.00 0.00 75 1013.4
20221129002533 51 245 7.0 15.0 0.00 0.00 0.00 74 1013.4
20221129002033 52 284 4.0 15.0 0.00 0.00 0.00 74 1013.5
20221129001551 52 279 6.0 15.0 0.00 0.00 0.00 74 1013.4
20221129001033 52 292 3.0 14.0 0.00 0.00 0.00 74 1013.4
20221129000536 52 219 4.0 14.0 0.00 0.00 0.00 74 1013.4
20221129000114 52 279 5.0 13.0 0.00 0.00 0.00 74 1013.4
20221128235539 52 273 4.0 13.0 0.00 0.00 0.00 74 1013.3
20221128235037 52 281 5.0 11.0 0.00 0.00 0.00 73 1013.2
20221128234552 53 296 4.0 12.0 0.00 0.00 0.00 73 1013.3
20221128234037 52 304 6.0 12.0 0.00 0.00 0.00 73 1013.1
20221128233538 52 291 4.0 15.0 0.00 0.00 0.00 74 1013.0
20221128233045 52 265 6.0 15.0 0.00 0.00 0.00 74 1013.1
20221128232539 52 296 7.0 16.0 0.00 0.00 0.00 74 1013.1
20221128232037 53 225 5.0 16.0 0.00 0.00 0.00 73 1013.3
20221128231547 53 283 6.0 16.0 0.00 0.00 0.00 73 1013.3
20221128231036 53 250 3.0 14.0 0.00 0.00 0.00 74 1013.4
20221128230536 53 286 4.0 15.0 0.00 0.00 0.00 75 1013.4
20221128230051 52 279 6.0 17.0 0.00 0.00 0.00 75 1013.4
20221128225539 53 293 8.0 17.0 0.00 0.00 0.00 75 1013.4
20221128225033 53 245 6.0 17.0 0.00 0.00 0.00 74 1013.4
20221128224557 53 236 6.0 17.0 0.00 0.00 0.00 73 1013.4
20221128224036 53 266 6.0 17.0 0.00 0.00 0.00 74 1013.4
20221128223537 53 263 5.0 15.0 0.00 0.00 0.00 74 1013.5
20221128223045 53 271 3.0 15.0 0.00 0.00 0.00 73 1013.7
20221128222536 53 286 5.0 17.0 0.00 0.00 0.00 73 1013.6
20221128222036 53 252 6.0 17.0 0.00 0.00 0.00 73 1013.6
20221128221556 53 275 6.0 13.0 0.00 0.00 0.00 73 1013.5
20221128221037 53 258 6.0 15.0 0.00 0.00 0.00 71 1013.7
20221128220534 53 297 6.0 15.0 0.00 0.00 0.00 71 1013.6
20221128220043 53 258 6.0 14.0 0.00 0.00 0.00 71 1013.6
20221128215533 53 252 7.0 14.0 0.00 0.00 0.00 70 1013.7
20221128215037 54 227 5.0 11.0 0.00 0.00 0.00 70 1013.9
20221128214543 54 278 4.0 11.0 0.00 0.00 0.00 70 1013.9
20221128214037 54 277 3.0 13.0 0.00 0.00 0.00 70 1013.9
20221128213540 54 298 3.0 13.0 0.00 0.00 0.00 70 1013.9
20221128213040 53 289 6.0 13.0 0.00 0.00 0.00 71 1013.8
20221128212536 53 287 5.0 13.0 0.00 0.00 0.00 72 1013.8
20221128212039 53 281 6.0 13.0 0.00 0.00 0.00 73 1013.8
20221128211549 54 250 5.0 12.0 0.00 0.00 0.00 72 1013.8
20221128211038 54 301 5.0 12.0 0.00 0.00 0.00 73 1013.9
20221128210536 54 270 6.0 12.0 0.00 0.00 0.00 71 1013.8
20221128210041 54 242 4.0 10.0 0.00 0.00 0.00 71 1013.7
20221128205533 54 263 2.0 10.0 0.00 0.00 0.00 72 1013.9
20221128205034 54 206 4.0 10.0 0.00 0.00 0.00 73 1013.9
20221128204555 54 270 3.0 9.0 0.00 0.00 0.00 74 1014.0
20221128204033 53 257 4.0 9.0 0.00 0.00 0.00 76 1014.0
20221128203536 53 262 3.0 10.0 0.00 0.00 0.00 79 1014.2
20221128203039 53 306 4.0 10.0 0.00 0.00 0.00 81 1014.1
20221128202536 53 252 4.0 9.0 0.00 0.00 0.00 83 1014.1
20221128202038 53 265 5.0 12.0 0.00 0.00 0.00 84 1014.2
20221128201551 53 255 4.0 12.0 0.00 0.00 0.00 85 1014.3
20221128201036 53 278 2.0 10.0 0.00 0.00 0.00 86 1014.4
20221128200535 53 290 4.0 10.0 0.00 0.00 0.00 86 1014.6
20221128200043 53 272 3.0 10.0 0.00 0.00 0.00 87 1014.7
20221128195536 53 275 2.0 14.0 0.00 0.00 0.00 87 1014.9
20221128195036 53 289 3.0 14.0 0.00 0.00 0.00 87 1015.0
20221128194604 53 277 6.0 14.0 0.00 0.00 0.00 87 1014.9
20221128194042 53 240 4.0 12.0 0.00 0.00 0.00 88 1014.9
20221128193537 53 271 4.0 12.0 0.00 0.00 0.00 89 1015.0
20221128193046 53 288 3.0 9.0 0.00 0.00 0.00 89 1015.0
20221128192538 53 238 1.0 12.0 0.00 0.00 0.00 89 1015.1
20221128192034 53 275 4.0 12.0 0.00 0.00 0.00 89 1015.2
20221128191616 53 233 5.0 11.0 0.00 0.00 0.00 89 1015.4
20221128191036 53 250 2.0 8.0 0.00 0.00 0.00 90 1015.4
20221128190538 53 273 2.0 7.0 0.00 0.00 0.00 90 1015.5
20221128190042 53 253 2.0 10.0 0.00 0.00 0.00 90 1015.6
20221128185536 52 294 3.0 10.0 0.00 0.00 0.00 90 1015.5
20221128185035 53 265 4.0 8.0 0.00 0.00 0.00 90 1015.5
20221128184542 53 241 3.0 8.0 0.00 0.00 0.00 90 1015.4
20221128184035 53 0 1.0 7.0 0.00 0.00 0.00 91 1015.5
20221128183535 52 355 2.0 12.0 0.00 0.00 0.00 91 1015.6
20221128183054 52 267 2.0 12.0 0.00 0.00 0.00 91 1015.5
20221128182535 52 255 3.0 12.0 0.00 0.00 0.00 91 1015.5
20221128182035 52 288 3.0 11.0 0.00 0.00 0.00 91 1015.5
20221128181554 52 289 3.0 11.0 0.00 0.00 0.00 91 1015.5
20221128181036 52 261 5.0 11.0 0.00 0.00 0.00 92 1015.6
20221128180536 52 292 3.0 11.0 0.00 0.00 0.00 92 1015.5
20221128180058 52 252 4.0 13.0 0.00 0.00 0.00 92 1015.5
20221128175536 52 281 4.0 13.0 0.00 0.00 0.00 92 1015.4
20221128175039 52 246 3.0 10.0 0.00 0.00 0.00 92 1015.4
20221128174546 52 256 3.0 9.0 0.00 0.00 0.00 92 1015.5
20221128174036 52 257 2.0 7.0 0.00 0.00 0.00 92 1015.5
20221128173539 52 273 3.0 7.0 0.00 0.00 0.00 92 1015.6
20221128173044 51 271 3.0 8.0 0.00 0.00 0.00 92 1015.6
20221128172539 51 265 2.0 8.0 0.00 0.00 0.00 92 1015.5
20221128172038 51 253 2.0 8.0 0.00 0.00 0.00 93 1015.5
20221128171557 51 288 3.0 9.0 0.00 0.00 0.00 93 1015.5
20221128171037 51 263 2.0 9.0 0.00 0.00 0.00 93 1015.5
20221128170537 51 304 3.0 9.0 0.00 0.00 0.00 93 1015.4
20221128170053 51 249 3.0 9.0 0.00 0.00 0.00 93 1015.5
20221128165537 51 246 3.0 7.0 0.00 0.00 0.00 93 1015.4
20221128165038 51 254 2.0 7.0 0.00 0.00 0.00 93 1015.3
20221128164547 51 302 3.0 8.0 0.00 0.00 0.00 93 1015.3
20221128164038 51 267 2.0 8.0 0.00 0.00 0.00 93 1015.3
20221128163538 50 278 2.0 7.0 0.00 0.00 0.00 93 1015.3
20221128163044 51 300 1.0 6.0 0.00 0.00 0.00 93 1015.3
20221128162537 50 281 1.0 10.0 0.00 0.00 0.00 93 1015.3
20221128162038 50 0 2.0 10.0 0.00 0.00 0.00 93 1015.2
20221128161547 50 92 2.0 10.0 0.00 0.00 0.00 93 1015.1
20221128161041 51 211 3.0 13.0 0.00 0.00 0.00 93 1015.0
20221128160537 51 282 2.0 13.0 0.00 0.00 0.00 93 1014.9
20221128160050 51 360 2.0 8.0 0.00 0.00 0.00 93 1015.0
20221128155538 51 340 3.0 8.0 0.00 0.00 0.00 93 1014.9
20221128155039 50 219 2.0 13.0 0.00 0.00 0.00 93 1014.8
20221128154544 50 304 1.0 13.0 0.00 0.00 0.00 93 1014.7
20221128154038 51 347 3.0 9.0 0.00 0.00 0.00 93 1014.9
20221128153538 50 321 3.0 9.0 0.00 0.00 0.00 93 1014.9
20221128153048 50 349 2.0 8.0 0.00 0.00 0.00 93 1014.8
20221128152541 50 291 1.0 8.0 0.00 0.00 0.00 93 1014.7
20221128152038 50 0 1.0 8.0 0.00 0.00 0.00 93 1014.7
20221128151545 50 343 1.0 6.0 0.00 0.00 0.00 93 1014.6
20221128151037 50 261 1.0 4.0 0.00 0.00 0.00 92 1014.6
20221128150538 50 24 0.0 4.0 0.00 0.00 0.00 92 1014.6
20221128150041 50 229 1.0 3.0 0.00 0.00 0.00 92 1014.5
20221128145537 50 240 0.0 6.0 0.00 0.00 0.00 92 1014.5
20221128145041 50 0 1.0 6.0 0.00 0.00 0.00 92 1014.4
20221128144541 50 334 1.0 3.0 0.00 0.00 0.00 92 1014.5
20221128144034 50 332 0.0 6.0 0.00 0.00 0.00 92 1014.5
20221128143536 50 355 1.0 6.0 0.00 0.00 0.00 92 1014.5
20221128143044 50 29 1.0 8.0 0.00 0.00 0.00 92 1014.5
20221128142536 50 248 1.0 8.0 0.00 0.00 0.00 92 1014.4
20221128142036 50 289 1.0 8.0 0.00 0.00 0.00 92 1014.5
20221128141547 50 192 1.0 3.0 0.00 0.00 0.00 91 1014.4
20221128141036 50 53 0.0 3.0 0.00 0.00 0.00 91 1014.3
20221128140537 50 273 1.0 4.0 0.00 0.00 0.00 91 1014.2
20221128140041 50 202 1.0 4.0 0.00 0.00 0.00 91 1014.3
20221128135536 50 310 1.0 4.0 0.00 0.00 0.00 91 1014.3
20221128135038 50 329 1.0 4.0 0.00 0.00 0.00 91 1014.2
20221128134545 50 262 0.0 8.0 0.00 0.00 0.00 91 1014.2
20221128134040 50 355 1.0 8.0 0.00 0.00 0.00 91 1014.2
20221128133537 50 276 1.0 6.0 0.00 0.00 0.00 91 1014.1
20221128133048 50 289 2.0 6.0 0.00 0.00 0.00 91 1014.1
20221128132536 50 360 1.0 6.0 0.00 0.00 0.00 91 1014.2
20221128132037 50 323 2.0 4.0 0.00 0.00 0.00 91 1014.1
20221128131542 50 9 0.0 4.0 0.00 0.00 0.00 91 1014.1
20221128131036 50 342 0.0 3.0 0.00 0.00 0.00 90 1014.0
20221128130536 50 310 1.0 3.0 0.00 0.00 0.00 90 1014.0
20221128130041 50 0 0.0 3.0 0.00 0.00 0.00 90 1014.0
20221128125538 50 0 0.0 6.0 0.00 0.00 0.00 90 1014.0
20221128125037 50 0 1.0 6.0 0.00 0.00 0.00 90 1014.1
20221128124544 50 0 1.0 7.0 0.00 0.00 0.00 90 1014.1
20221128124038 50 264 1.0 7.0 0.00 0.00 0.00 90 1014.1
20221128123535 50 231 0.0 4.0 0.00 0.00 0.00 90 1014.1
20221128123042 50 0 1.0 4.0 0.00 0.00 0.00 90 1014.1
20221128122536 50 288 1.0 4.0 0.00 0.00 0.00 90 1014.2
20221128122036 50 30 0.0 4.0 0.00 0.00 0.00 90 1014.0
20221128121553 50 0 0.0 4.0 0.00 0.00 0.00 89 1014.0
20221128121036 50 285 1.0 5.0 0.00 0.00 0.00 90 1013.9
20221128120540 50 0 1.0 5.0 0.00 0.00 0.00 90 1014.0
20221128120048 50 360 0.0 8.0 0.00 0.00 0.00 89 1014.1
20221128115535 50 0 0.0 8.0 0.00 0.00 0.00 89 1014.0
20221128115036 50 351 1.0 5.0 0.00 0.00 0.00 89 1014.0
20221128114551 51 261 1.0 7.0 0.00 0.00 0.00 89 1014.2
20221128114041 51 110 1.0 7.0 0.00 0.00 0.00 89 1014.0
20221128113536 50 263 2.0 6.0 0.00 0.00 0.00 89 1014.1
20221128113054 50 265 2.0 5.0 0.00 0.00 0.00 89 1013.9
20221128112537 50 277 1.0 3.0 0.00 0.00 0.00 89 1014.0
20221128112037 50 229 0.0 7.0 0.00 0.00 0.00 89 1013.9
20221128111545 50 0 1.0 7.0 0.00 0.00 0.00 89 1014.0
20221128111037 50 275 1.0 5.0 0.00 0.00 0.00 89 1014.1
20221128110537 50 215 1.0 5.0 0.00 0.00 0.00 89 1014.1
20221128110053 50 254 2.0 5.0 0.00 0.00 0.00 90 1014.1
20221128105537 50 166 2.0 4.0 0.00 0.00 0.00 90 1014.0
20221128105037 49 269 1.0 6.0 0.00 0.00 0.00 91 1013.9
20221128104546 49 184 1.0 6.0 0.00 0.00 0.00 90 1013.9
20221128104038 49 174 1.0 3.0 0.00 0.00 0.00 90 1014.0
20221128103537 49 191 1.0 2.0 0.00 0.00 0.00 90 1014.0
20221128103051 49 0 0.0 4.0 0.00 0.00 0.00 90 1014.0
20221128102537 49 190 1.0 4.0 0.00 0.00 0.00 91 1014.0
20221128102037 49 0 0.0 5.0 0.00 0.00 0.00 90 1014.1
20221128101544 49 163 2.0 5.0 0.00 0.00 0.00 91 1014.0
20221128101037 49 169 2.0 5.0 0.00 0.00 0.00 91 1013.9
20221128100539 50 186 3.0 5.0 0.00 0.00 0.00 91 1013.9
20221128100043 50 160 3.0 5.0 0.00 0.00 0.00 91 1014.0
20221128095537 49 148 2.0 6.0 0.00 0.00 0.00 91 1014.0
20221128095037 49 165 2.0 7.0 0.00 0.00 0.00 91 1014.0
20221128094545 49 155 3.0 7.0 0.00 0.00 0.00 91 1013.8
20221128094049 49 144 3.0 6.0 0.00 0.00 0.00 91 1013.8
20221128093537 50 147 2.0 5.0 0.00 0.00 0.00 91 1013.9
20221128093046 50 161 2.0 6.0 0.00 0.00 0.00 91 1014.0
20221128092538 50 157 2.0 6.0 0.00 0.00 0.00 91 1014.0
20221128092037 50 165 3.0 5.0 0.00 0.00 0.00 92 1014.0
20221128091545 50 171 2.0 5.0 0.00 0.00 0.00 92 1014.1
20221128091037 49 169 2.0 5.0 0.00 0.00 0.00 92 1014.0
20221128090537 49 157 2.0 5.0 0.00 0.00 0.00 92 1014.0
20221128090045 49 147 1.0 5.0 0.00 0.00 0.00 92 1014.1
20221128085537 50 160 2.0 5.0 0.00 0.00 0.00 92 1014.1
20221128085037 50 157 2.0 5.0 0.00 0.00 0.00 92 1014.2
20221128084547 50 153 3.0 5.0 0.00 0.00 0.00 92 1014.3
20221128084038 50 159 3.0 5.0 0.00 0.00 0.00 92 1014.2
20221128083538 50 184 1.0 5.0 0.00 0.00 0.00 92 1014.4
20221128083051 50 186 3.0 5.0 0.00 0.00 0.00 92 1014.3
20221128082536 50 183 2.0 5.0 0.00 0.00 0.00 92 1014.3
20221128082038 50 164 2.0 5.0 0.00 0.00 0.00 92 1014.3
20221128081550 50 162 3.0 5.0 0.00 0.00 0.00 92 1014.4
20221128081036 50 169 2.0 4.0 0.00 0.00 0.00 92 1014.5
20221128080537 50 171 2.0 4.0 0.00 0.00 0.00 92 1014.6
20221128080047 50 169 2.0 4.0 0.00 0.00 0.00 92 1014.6
20221128075537 50 164 1.0 4.0 0.00 0.00 0.00 92 1014.5
20221128075037 50 166 1.0 4.0 0.00 0.00 0.00 92 1014.6
20221128074546 50 182 2.0 4.0 0.00 0.00 0.00 92 1014.7
20221128074039 50 167 1.0 4.0 0.00 0.00 0.00 92 1014.6
20221128073538 50 190 1.0 5.0 0.00 0.00 0.00 92 1014.9
20221128073043 50 187 2.0 5.0 0.00 0.00 0.00 92 1014.7
20221128072536 50 170 1.0 5.0 0.00 0.00 0.00 92 1014.8
20221128072036 50 164 2.0 5.0 0.00 0.00 0.00 92 1014.7
20221128071545 50 179 1.0 4.0 0.00 0.00 0.00 92 1014.9
20221128071036 50 169 1.0 4.0 0.00 0.00 0.00 92 1015.0
20221128070536 50 175 1.0 4.0 0.00 0.00 0.00 92 1015.0
20221128070046 50 190 0.0 3.0 0.00 0.00 0.00 92 1015.1
20221128065540 50 189 1.0 5.0 0.00 0.00 0.00 92 1015.2
20221128065036 50 190 2.0 5.0 0.00 0.00 0.00 92 1015.0
20221128064552 50 182 3.0 5.0 0.00 0.00 0.00 92 1015.1
20221128064036 50 160 2.0 5.0 0.00 0.00 0.00 92 1015.1
20221128063537 50 165 2.0 5.0 0.00 0.00 0.00 92 1015.1
20221128063054 50 178 2.0 5.0 0.00 0.00 0.00 92 1015.1
20221128062536 50 163 2.0 5.0 0.00 0.00 0.00 92 1015.2
20221128062036 50 163 2.0 4.0 0.00 0.00 0.00 92 1015.2
20221128061545 50 180 2.0 5.0 0.00 0.00 0.00 92 1015.3
20221128061036 50 184 2.0 5.0 0.00 0.00 0.00 92 1015.3
20221128060538 50 167 3.0 5.0 0.00 0.00 0.00 92 1015.3
20221128060051 50 171 2.0 4.0 0.00 0.00 0.00 92 1015.4
20221128055536 50 168 2.0 4.0 0.00 0.00 0.00 92 1015.3
20221128055035 50 173 1.0 4.0 0.00 0.00 0.00 92 1015.4
20221128054548 50 179 2.0 4.0 0.00 0.00 0.00 92 1015.4
20221128054036 50 169 1.0 4.0 0.00 0.00 0.00 92 1015.3
20221128053535 50 178 1.0 4.0 0.00 0.00 0.00 92 1015.3
20221128053056 50 167 2.0 4.0 0.00 0.00 0.00 92 1015.3
20221128052537 50 173 1.0 4.0 0.00 0.00 0.00 92 1015.4
20221128052036 50 173 2.0 5.0 0.00 0.00 0.00 92 1015.4
20221128051550 50 177 2.0 5.0 0.00 0.00 0.00 92 1015.5
20221128051036 50 167 1.0 3.0 0.00 0.00 0.00 92 1015.5
20221128050535 50 167 1.0 3.0 0.00 0.00 0.00 92 1015.5